Location: Fort Hays State University
(38.8712°N, 99.3432°W)
Time: 22:30:12
(UTC-06:00)

Cosmos 2279 Rocket - Visible Passes

Search period start: 24 February 2017 00:00
Search period end: 06 March 2017 00:00
Orbit: 965 x 979 km, 82.9° (Epoch: 23 February)

Date Brightness Start Highest point End Pass type
(mag) Time Alt. Az. Time Alt. Az. Time Alt. Az.
24 Feb 6.6 03:02:51 12° NNE 03:02:51 12° NNE 03:03:26 10° NNE visible
24 Feb 5.8 04:47:26 17° NNW 04:47:26 17° NNW 04:49:00 10° N visible
25 Feb 6.3 03:27:11 16° NNE 03:27:11 16° NNE 03:28:17 10° NNE visible
25 Feb 6.0 05:11:46 12° NNW 05:11:46 12° NNW 05:12:29 10° NNW visible
26 Feb 6.1 03:51:30 17° N 03:51:30 17° N 03:52:44 10° N visible
27 Feb 6.1 04:15:48 15° N 04:15:48 15° N 04:16:51 10° N visible
28 Feb 6.6 02:55:29 12° NNE 02:55:29 12° NNE 02:55:50 10° NNE visible
28 Feb 6.1 04:40:05 12° NNW 04:40:05 12° NNW 04:40:34 10° NNW visible
01 Mar 6.4 03:19:45 13° N 03:19:45 13° N 03:20:25 10° N visible
02 Mar 6.3 03:44:00 13° N 03:44:00 13° N 03:44:40 10° N visible
03 Mar 6.3 04:08:13 11° NNW 04:08:13 11° NNW 04:08:33 10° NNW visible
04 Mar 6.7 02:47:51 11° NNE 02:47:51 11° NNE 02:48:04 10° NNE visible
05 Mar 6.5 03:12:03 12° N 03:12:03 12° N 03:12:26 10° N visible
